Skagway, AK (99840)

10:51 PM AKDT on August 04, 2015 (GMT -0800)
RAWS | | Change Station
CLOSE
Current Station
Personal Weather Station
Location: Skagway, AK
Elevation: 919 ft
Nearby Weather Stations

Elev 919 ft 59.66 °N, 135.27 °W | Updated 5 hours ago

Clear
Clear
75.0 °F
Feels Like 75.0 °F
N
1.0
Wind Variable Wind from NNW
Gusts 4.0 mph

Today
High -- | Low -- °F
--% Chance of Precip.
Yesterday
High -- | Low -- °F
Precip. -- in
4:52 AM 9:20 PM
Waning Gibbous, 70% visible
Pressure 29.89 in
Visibility 10.0 miles
Clouds Clear
Dew Point 53.0 °F
Humidity 46%
Rainfall in
Snow Depth Not available.
UV 0 out of 12
Pollen Not available.
Air Quality Not available.
Flu Activity Not available.
METAR PAGY 050553Z AUTO 06003KT 10SM CLR 18/12 A2989 RMK AO2 SLP122 T01830122 10222 20167 51013 TSNO $

More Conditions Fewer Conditions

Pressure 29.89 in
Visibility 10.0 miles
Clouds Clear
Dew Point 53.0 °F
Humidity 46%
Rainfall in
Snow Depth Not available.
UV 0 out of 12
Pollen Not available.
Air Quality Not available.
Flu Activity Not available.
METAR PAGY 050553Z AUTO 06003KT 10SM CLR 18/12 A2989 RMK AO2 SLP122 T01830122 10222 20167 51013 TSNO $

More Conditions Fewer Conditions

10-Day Weather Forecast

×

Almanac

Astronomy

Aug. 04, 2015 Rise Set
Actual Time
Civil Twilight
Nautical Twilight
Astronomical Twilight
Moon
Length of Visible Light
Length of Day
Tomorrow will be .
, % of the Moon is Illuminated

Today's Extremes

State Highs State Lows

Community

WunderPhotos

Upload Photos

1,844,105 photos uploaded!

WunderBlogs® & News

Nearby

Air Quality

  Air Quality AQ Index Pollutant
Not available.

Snow Depth

Station Depth Elevation

Earthquake Activity

City Distance Mag. Time & Date
Minimum magnitude displayed is 2.5.

Coastal Water Temperatures

Place Temperature

Stations

Nearby Weather Stations

Station Location Temp. Windchill Dew Point Humidity Wind Precip. Elev Updated Type